NIMBUS 2 DEB, 59970

Orbit data source: Space-Track

NIMBUS 2 DEB, 59970 is space debris in SSO originally from a launch on Sun, 15 May 1966 UTC launched from the Air Force Western Test Range (AFWTR). Debris objects in space refer to the collection of defunct objects orbiting the Earth. Examples of debris include non-operational satellites, rocket bodies, and fragments generated from explosions, collisions, or faulty payload assembly.

Loading next visibility...
Identifier
59970, 1966-040BZ
Orbit
SSO
Country
Flag of USUS
Related business
Manufacturer
Unknown
Mission
Spacecraft
Bus & Motor
Unknown
Mass
Unknown
Launch date (UTC)
1966-05-15 (59 years ago)
Launch vehicle
Unknown
Launch site
Air Force Western Test Range (AFWTR)
Object type
Payload
Rocket body
Debris
Shape & HBR
Unknown shape, 0.1 m
Radar Cross Section
Small (<0.1 m²)

Expand to show TLE details & history
Last TLE update: 9 hours ago

TLE from 9 hours ago
0 NIMBUS 2 DEB
1 59970U 66040BZ  25286.93506744  .00001894  00000-0  35102-2 0  9992
2 59970 100.3312  99.3281 0054512  84.1078 276.6259 13.40427987391240
Epoch: 2025-10-13T22:26Z
TLE epoch observation values (Epoch: 2025-10-13T22:26:29.826Z)
Latitude
-0.00002°
Longitude
99.97311°
Altitude
1,105.946 km
Speed
7.302 km/s
True Right ascension
06h 37m 18s
True Declination
0° 00' 00"
Sunlit
Object was in daylight at epoch
Visualization orbit readout
Latitude
Unknown
Longitude
Unknown
Altitude
Unknown
Speed
Unknown
Apparent Right ascension
Unknown
Apparent Declination
Unknown
Sunlit
N/A
Visualization observer readout
Local Sidereal Time
01:35:18
Azimuth
Unknown
Elevation
Unknown
Doppler factor
Unknown
Orbital elements
Apogee altitude
1,145.825 km
Perigee altitude
1,064.24 km
Semi-major axis
7,483.17 km
Eccentricity
0.00545
Inclination
100.3312°
RAAN
99.3281°
Arg. of periapsis
84.1078°
True anomaly
276.00493°
Mean anomaly
276.6259°
Eccentric anomaly
276.31546°
Mean motion
3.35286 °/min
Orbital period
107.37 mins
BSTAR
0.0035102
Loading maneuver chart data...
Computing Atmospheric mass density...
Loading historical data...
Loading historical data...
Loading historical data...
Loading historical data...
Loading historical data...
Loading historical data...
Loading historical data...

Documentation

Showing up to 5 results
|